Wind_Speed
28 30 32 34 36 38 40 41 41 41 41 41 41 41 42 42 43 44 44 45 46 46 47 48 49 50 50 51 51 52 52 53 52 52 51 50 49 48 47 46 45 45 45
29 31 34 36 37 39 40 40 39 38 37 38 38 39 39 40 41 43 44 45 46 47 48 49 50 51 52 53 54 54 55 55 55 54 54 53 53 52 51 51 50 49 48
31 33 35 37 37 38 38 38 37 37 37 38 39 40 41 43 45 46 48 49 50 51 52 54 55 55 56 56 57 57 57 57 57 57 56 56 56 56 56 55 55 54 53
33 35 36 36 37 37 38 38 39 39 40 41 42 44 45 47 48 50 52 53 54 54 55 56 57 58 58 58 58 59 59 59 59 59 59 58 58 59 59 58 58 57 56
36 37 37 37 38 38 39 40 41 43 44 45 46 47 49 50 51 52 54 55 57 58 58 59 60 61 61 61 61 61 60 60 60 60 60 59 59 59 60 60 60 60 59
39 39 39 39 40 41 41 42 44 45 47 48 49 50 51 52 54 56 57 59 60 61 63 64 65 65 65 66 66 66 65 65 64 63 63 62 61 61 61 61 60 60 60
40 41 41 41 42 43 43 45 46 47 49 51 52 53 55 56 58 60 62 64 66 67 68 70 71 71 72 72 72 73 73 73 71 70 69 67 66 65 65 64 63 62 62
41 41 42 42 43 44 45 46 48 49 51 54 57 59 60 61 63 65 67 68 70 72 73 74 75 76 77 78 78 78 79 79 78 77 75 74 72 71 69 68 67 66 65
41 42 43 44 44 46 47 49 51 54 56 59 62 66 68 70 70 69 71 73 74 75 76 78 79 80 82 82 83 83 83 83 83 83 82 80 78 76 73 70 68 68 68
42 43 44 45 46 48 50 53 56 59 62 65 67 70 74 77 79 79 79 80 81 81 81 82 83 85 87 88 88 88 87 87 87 87 86 85 83 79 75 72 71 70 70
43 44 46 47 49 52 55 59 62 66 69 72 74 76 78 80 82 85 86 86 87 87 88 88 90 91 92 93 94 93 92 90 88 86 86 86 85 81 76 75 74 73 73
45 47 49 51 54 58 61 65 68 71 73 76 78 81 83 85 86 88 89 89 90 91 92 94 95 97 98 99 97 95 93 90 87 85 84 86 87 86 82 79 77 77 77
47 50 53 56 60 64 67 70 73 75 77 79 82 84 86 88 91 93 96 96 97 96 97 98 100 102 103 102 99 94 90 86 85 83 83 83 86 89 89 87 84 81 80
50 54 58 62 65 69 72 74 76 78 80 82 84 87 89 91 94 97 100 103 105 104 103 102 102 103 103 100 96 90 85 80 77 77 78 79 82 86 89 91 89 86 83
56 60 63 67 70 72 74 77 79 81 83 85 87 90 92 94 97 100 102 104 107 109 107 102 98 96 96 94 90 86 82 76 72 70 70 70 72 76 81 87 91 91 88
61 65 68 71 73 75 77 80 82 84 86 88 90 92 95 98 100 101 102 103 103 104 103 96 91 86 87 88 88 86 84 79 74 70 68 67 66 66 68 73 81 89 92
66 69 71 73 75 78 80 82 84 86 89 91 93 96 98 100 101 101 100 99 98 98 98 92 86 82 80 81 83 85 85 83 80 76 72 70 67 65 64 64 67 75 84
69 71 74 76 78 81 83 85 86 89 91 93 96 98 99 99 99 98 96 94 93 92 92 88 81 77 74 73 75 77 78 80 81 80 78 75 72 69 66 64 63 65 70
72 74 77 79 80 82 84 87 89 91 93 95 97 98 97 96 94 93 91 89 87 85 83 82 78 74 70 68 69 70 71 73 76 78 80 80 77 74 71 67 65 64 64
74 77 78 80 82 84 87 89 91 93 95 95 95 94 92 91 90 89 87 84 81 77 75 74 72 69 66 62 62 62 61 62 65 69 74 78 80 79 75 72 69 66 65
76 78 79 81 84 87 89 91 93 94 94 93 91 89 87 87 87 85 81 78 74 71 69 68 66 64 61 58 56 54 53 50 50 55 63 69 75 76 76 75 72 70 68
77 78 80 83 86 89 91 93 94 93 91 89 86 84 83 84 82 78 74 71 69 67 65 63 61 59 56 54 51 48 45 42 39 40 49 53 61 67 70 71 71 70 69
77 79 82 85 88 90 91 91 90 88 86 84 83 82 82 80 77 73 68 64 61 60 60 60 58 55 53 49 46 41 38 35 31 29 35 39 46 53 59 63 64 66 66
78 81 85 88 89 90 90 88 86 83 81 80 82 83 81 76 72 68 64 59 55 54 54 53 52 50 47 42 39 36 31 26 21 21 26 27 32 39 45 49 52 55 57
81 85 88 89 89 88 86 84 82 80 78 79 81 81 76 71 66 64 60 56 51 49 47 46 45 42 38 36 35 32 28 23 14 13 19 20 21 26 31 35 40 44 47
85 87 89 89 87 84 82 80 80 79 79 79 79 75 69 64 61 58 55 52 48 43 39 35 32 31 31 29 29 29 26 21 12 8 13 15 14 17 20 25 29 34 38
Wind_Direction
285 284 284 284 285 286 287 289 289 289 288 287 287 286 285 285 284 284 283 284 284 284 283 283 283 283 282 282 281 281 281 281 280 279 279 278 278 277 276 275 275 275 275
286 286 285 286 287 288 289 290 290 290 290 290 289 288 288 287 286 286 285 285 285 285 285 284 284 284 283 283 282 281 281 281 280 280 279 279 278 277 276 275 275 274 274
288 288 289 290 291 292 292 292 292 291 291 290 289 289 289 289 289 288 288 288 287 287 287 286 285 284 283 282 282 281 280 280 279 279 278 278 278 277 276 275 275 274 273
292 293 293 293 294 294 294 294 293 293 292 292 291 291 291 291 291 291 291 290 290 289 289 288 287 285 284 283 281 281 280 279 279 278 277 277 276 276 276 275 275 274 273
295 295 295 295 294 294 294 294 294 294 294 294 294 294 294 294 294 294 293 293 292 291 290 289 287 287 286 285 283 282 280 279 278 278 277 276 276 275 275 274 274 273 272
296 296 296 296 296 296 296 296 297 297 297 297 297 297 297 297 297 296 295 294 293 292 291 290 288 287 286 285 284 283 281 280 278 277 276 275 274 273 272 272 272 271 271
296 297 298 299 300 300 300 300 300 300 300 300 300 300 299 299 298 297 296 294 293 292 290 289 288 287 285 284 282 282 280 279 277 276 274 273 271 270 269 268 268 268 267
298 299 301 301 301 301 301 301 301 301 301 301 301 300 299 297 296 296 294 293 291 290 289 288 287 285 284 283 281 280 279 277 276 275 273 272 270 269 267 265 264 263 263
299 300 301 301 301 301 301 301 301 301 301 301 301 300 299 298 296 294 293 291 290 289 288 287 286 284 283 282 280 279 277 275 274 273 272 270 268 267 265 263 261 260 259
299 299 299 300 300 300 301 301 302 302 302 302 301 301 300 300 299 297 296 294 292 291 289 288 286 285 283 282 280 278 276 274 272 271 269 267 266 264 262 261 259 257 257
297 297 297 298 299 300 302 303 304 304 304 303 302 301 300 299 298 297 297 295 294 293 292 290 289 287 286 284 282 280 278 275 272 268 265 263 261 259 258 257 256 255 254
295 296 298 299 301 302 304 304 305 304 304 303 303 302 301 300 298 297 296 295 294 293 292 291 290 288 286 285 283 281 279 276 272 267 262 258 255 253 252 251 250 250 250
297 298 300 302 303 304 305 305 305 304 304 303 303 302 301 300 300 299 298 297 295 294 293 292 291 289 287 285 283 281 278 275 271 267 262 257 253 250 248 247 246 246 247
299 300 302 303 304 304 305 305 305 305 304 304 303 303 303 302 302 301 301 300 298 296 295 293 291 289 287 285 284 282 279 276 272 268 264 259 255 251 248 245 243 242 242
301 303 304 304 305 305 305 306 306 305 305 305 305 305 305 304 303 303 302 301 299 297 295 293 291 289 288 287 285 283 280 276 272 268 264 262 259 255 251 247 244 242 239
304 305 305 305 306 306 306 306 306 306 306 307 306 306 306 305 304 303 302 300 299 298 297 296 293 290 287 285 283 280 277 273 269 265 262 260 259 257 255 251 248 245 243
306 306 306 306 307 307 307 307 308 308 308 308 308 307 307 306 305 304 302 301 300 299 299 298 296 293 289 285 282 278 274 270 266 262 259 257 255 255 254 253 251 249 247
307 307 307 307 307 307 308 309 309 309 309 309 309 308 308 307 305 304 304 303 302 301 301 300 299 296 293 289 284 280 275 269 265 260 257 254 253 252 252 252 252 250 249
307 307 308 308 308 309 309 310 310 311 311 310 310 309 308 307 307 306 306 305 304 303 302 301 301 300 298 295 289 283 277 271 265 260 256 253 251 250 250 250 251 251 250
307 308 309 309 310 310 311 311 312 312 312 311 310 309 309 309 308 308 307 306 305 304 303 303 303 303 302 299 295 290 283 275 268 262 256 252 249 248 248 249 249 249 250
308 309 310 311 311 312 312 313 313 313 312 311 310 310 310 310 310 310 309 308 307 306 306 305 306 306 305 303 300 296 291 283 273 266 258 252 250 249 248 248 247 247 247
309 310 311 312 313 313 313 313 313 313 312 311 311 311 311 312 311 310 309 309 308 308 308 308 308 308 307 306 305 302 298 292 282 271 264 256 251 249 248 247 246 245 244
311 312 313 313 313 314 314 313 313 312 312 312 313 313 314 314 312 311 310 309 309 309 309 310 310 310 310 310 309 309 306 303 297 283 269 260 254 250 248 246 245 244 242
313 313 314 314 314 314 313 313 313 313 314 314 315 316 316 315 313 311 311 310 310 310 310 310 310 311 312 313 314 316 316 314 306 290 276 266 256 252 248 246 244 241 238
314 314 315 315 315 314 314 314 314 315 315 316 317 318 317 315 314 312 312 312 313 313 312 312 311 313 315 317 319 321 324 326 322 293 281 275 262 254 249 245 241 237 233
315 315 315 315 315 314 314 315 315 316 317 318 318 318 316 315 314 313 313 314 315 315 314 312 311 313 317 319 320 321 325 331 331 299 285 284 272 259 249 242 236 231 227
Height
5807 5805 5803 5800 5797 5795 5792 5789 5785 5782 5779 5776 5773 5771 5768 5766 5763 5760 5758 5755 5752 5749 5747 5744 5741 5739 5736 5734 5732 5729 5727 5725 5723 5721 5719 5718 5716 5715 5714 5714 5713 5713 5712
5800 5798 5795 5792 5789 5786 5783 5780 5777 5774 5771 5768 5765 5762 5760 5758 5755 5751 5749 5746 5743 5740 5736 5733 5730 5727 5724 5722 5719 5717 5715 5712 5710 5708 5707 5705 5703 5702 5701 5700 5700 5700 5699
5794 5791 5788 5784 5781 5778 5775 5772 5769 5766 5763 5760 5758 5755 5752 5749 5746 5743 5739 5736 5733 5730 5726 5722 5719 5716 5713 5709 5706 5704 5701 5699 5697 5695 5693 5692 5690 5689 5688 5687 5686 5685 5685
5787 5784 5781 5777 5774 5770 5767 5764 5761 5758 5755 5752 5750 5747 5743 5740 5737 5733 5729 5725 5721 5718 5714 5710 5706 5702 5699 5696 5693 5690 5687 5685 5683 5680 5679 5677 5676 5675 5674 5673 5672 5671 5670
5780 5777 5774 5770 5767 5763 5760 5756 5753 5750 5746 5743 5740 5737 5733 5730 5726 5722 5717 5713 5708 5704 5700 5696 5692 5688 5684 5681 5678 5676 5673 5670 5668 5666 5663 5662 5661 5660 5658 5658 5657 5656 5656
5772 5769 5766 5762 5759 5755 5752 5748 5744 5741 5737 5733 5730 5726 5723 5719 5714 5710 5706 5701 5696 5691 5686 5681 5677 5673 5669 5664 5661 5658 5655 5653 5651 5649 5647 5646 5644 5643 5642 5641 5641 5641 5641
5764 5761 5758 5754 5750 5747 5743 5739 5735 5731 5726 5722 5718 5715 5711 5706 5702 5696 5692 5686 5681 5676 5670 5665 5659 5654 5650 5646 5642 5638 5634 5632 5631 5630 5629 5627 5626 5625 5624 5623 5623 5624 5624
5756 5753 5749 5745 5742 5737 5733 5729 5725 5721 5716 5710 5704 5700 5697 5695 5689 5683 5676 5670 5665 5659 5653 5647 5640 5635 5629 5625 5622 5617 5612 5609 5607 5607 5606 5606 5605 5605 5604 5604 5604 5605 5606
5749 5745 5741 5737 5733 5728 5723 5718 5713 5708 5704 5698 5691 5683 5677 5673 5671 5668 5661 5654 5647 5641 5634 5628 5621 5614 5607 5601 5598 5594 5589 5584 5581 5581 5581 5582 5582 5582 5583 5584 5584 5585 5586
5740 5736 5732 5727 5723 5718 5712 5707 5701 5695 5689 5683 5676 5668 5659 5651 5644 5642 5639 5631 5625 5619 5613 5606 5598 5590 5582 5575 5571 5567 5563 5559 5555 5554 5554 5555 5556 5558 5559 5561 5562 5563 5565
5731 5727 5722 5717 5712 5706 5700 5694 5687 5679 5672 5664 5657 5649 5641 5632 5623 5616 5613 5607 5599 5592 5585 5579 5570 5562 5553 5545 5539 5535 5531 5529 5526 5525 5525 5526 5528 5530 5532 5535 5537 5539 5542
5722 5717 5711 5706 5700 5694 5687 5679 5672 5664 5655 5646 5637 5627 5618 5609 5600 5591 5586 5582 5576 5571 5561 5552 5542 5532 5522 5513 5506 5501 5497 5494 5492 5491 5492 5494 5496 5500 5503 5506 5510 5514 5518
5712 5706 5700 5694 5687 5680 5672 5664 5656 5647 5637 5627 5617 5607 5596 5585 5574 5563 5554 5549 5546 5543 5535 5526 5512 5499 5487 5478 5473 5468 5464 5461 5459 5458 5459 5461 5464 5469 5474 5479 5483 5487 5492
5701 5695 5689 5682 5674 5666 5657 5648 5638 5628 5618 5607 5596 5585 5574 5562 5550 5537 5523 5512 5506 5506 5504 5498 5482 5466 5450 5442 5439 5435 5432 5431 5428 5427 5428 5430 5434 5437 5442 5448 5454 5460 5466
5690 5683 5675 5667 5659 5650 5640 5630 5620 5609 5598 5586 5574 5562 5550 5537 5524 5510 5496 5480 5465 5456 5462 5465 5453 5439 5420 5410 5407 5403 5401 5402 5401 5400 5400 5402 5405 5408 5413 5418 5424 5431 5439
5676 5668 5660 5651 5641 5631 5621 5611 5600 5588 5577 5564 5551 5539 5526 5512 5498 5484 5469 5454 5436 5418 5412 5421 5416 5410 5397 5383 5377 5372 5370 5372 5374 5375 5376 5377 5380 5383 5387 5392 5397 5403 5409
5661 5652 5643 5633 5623 5613 5602 5591 5580 5568 5555 5542 5528 5515 5501 5486 5471 5456 5441 5427 5412 5394 5379 5381 5380 5375 5368 5357 5347 5340 5337 5338 5342 5346 5349 5352 5356 5360 5364 5369 5373 5379 5384
5645 5635 5625 5615 5604 5593 5582 5571 5559 5547 5534 5520 5506 5491 5475 5460 5445 5430 5415 5401 5387 5373 5356 5347 5348 5343 5337 5329 5318 5310 5306 5304 5307 5314 5319 5324 5330 5336 5341 5346 5352 5357 5362
5628 5618 5608 5597 5585 5574 5563 5551 5539 5526 5512 5497 5481 5466 5450 5435 5421 5406 5392 5378 5364 5351 5337 5323 5318 5314 5308 5301 5289 5282 5277 5274 5275 5280 5286 5294 5302 5309 5316 5323 5330 5336 5342
5611 5601 5590 5578 5566 5555 5543 5530 5518 5504 5490 5474 5458 5442 5426 5411 5397 5383 5370 5357 5343 5331 5319 5306 5297 5290 5283 5276 5264 5255 5250 5248 5247 5249 5254 5262 5271 5280 5290 5299 5308 5315 5321
5594 5583 5572 5560 5548 5535 5522 5509 5496 5482 5467 5452 5437 5422 5406 5391 5376 5361 5347 5335 5323 5311 5301 5290 5280 5270 5263 5254 5245 5236 5229 5226 5226 5225 5226 5234 5244 5254 5264 5273 5282 5291 5299
5578 5566 5555 5542 5530 5516 5502 5488 5473 5460 5446 5430 5417 5404 5389 5373 5358 5344 5330 5317 5304 5292 5282 5273 5264 5254 5246 5237 5229 5221 5214 5209 5210 5212 5206 5213 5219 5228 5238 5247 5257 5266 5275
5562 5550 5537 5524 5511 5497 5483 5468 5453 5439 5425 5410 5396 5382 5369 5354 5338 5325 5315 5305 5293 5280 5268 5257 5248 5240 5232 5225 5216 5211 5205 5199 5197 5197 5194 5198 5202 5208 5216 5224 5234 5243 5253
5545 5533 5520 5506 5492 5477 5462 5447 5434 5421 5407 5392 5377 5361 5347 5334 5320 5307 5298 5290 5281 5270 5258 5248 5237 5229 5221 5214 5207 5201 5196 5193 5191 5188 5186 5188 5191 5194 5199 5206 5215 5224 5235
5529 5515 5501 5487 5473 5458 5442 5427 5413 5402 5390 5376 5361 5344 5329 5316 5304 5291 5282 5274 5268 5259 5249 5238 5228 5220 5213 5207 5200 5195 5191 5188 5186 5184 5181 5181 5183 5185 5190 5195 5202 5211 5221
5511 5497 5482 5467 5453 5439 5425 5410 5394 5382 5372 5360 5347 5330 5315 5301 5290 5279 5269 5261 5254 5247 5240 5232 5224 5216 5209 5204 5198 5192 5188 5185 5183 5181 5179 5178 5179 5180 5184 5188 5194 5202 5211